Location: La Chapelle
(48.3135°N, 1.3085°W)
Time: 01:48:32
(UTC+00:00)

COSMOS 2428 - Pass Details

Date: 03 March 2021
Orbit: 845 x 858 km, 70.9° (Epoch: 16 April)

Event Time Altitude Azimuth Distance (km) Brightness Sun altitude
Rises 21:00:14 0° 219° (SW) 3,395 6.0 -31.1°
Reaches altitude 10° 21:02:43 10° 223° (SW) 2,464 5.2 -31.4°
Enters shadow 21:07:09 49° 257° (WSW) 1,082 3.4 -32.1°
Exits shadow 21:13:53 10° 22° (NNE) 2,465 5.2 -33.0°
Drops below altitude 10° 21:13:56 10° 22° (NNE) 2,484 5.2 -33.0°
Sets 21:16:27 0° 27° (NNE) 3,425 5.9 -33.4°
